Hauptseite
METAR-TAF:

METAR-TAF

Flughäfen :

Hohenfels, Deutschland

Breite: 49-13N, Länge: 011-50E, Höhe: 442 m

Beobachtung

Neuester Wetterbericht von vor 21 Minuten, um 12:30 UTC
Wind 6 kt aus Südost
Temperatur 24°C
Luftfeuchtigkeit 38%
Luftdruck 1005 hPa
Sichtweite: 5000 m
Himmel klar
trockener Dunst

METAR: ETIH 241230Z AUTO 13006KT 5000 HZ CLR 24/09 A2968 RMK AO2 SLP042 $

Zeit: 14:51 (12:51 UTC)


TAF: fehlend

Wetterbeobachtungen und Prognosen von mehr als 4000 Flughäfen (METAR und TAF Bericht).

Die verfügbaren Stationen werden durch gelbe und rote Markierungen auf der Karte dargestellt.

Führen Sie die Maus auf sie, um den Namen der Station zu sehen.

Darauf klicken, um die Beobachtung von Wetterbeobachtungen und Prognosen zu sehen.

Um die Karte zu ändern : klicken Sie auf den grünen Tasten mit einem schwarzen Kreuz Zum Vergrößern, auf den grünen Button mit einem Gedankenstrich zu verkleinern, oder auf die grünen Pfeile für benachbarte Karten.


METAR-TAF: